Showing default

BEIDOU 3M14, 43623

Orbit data source: Space-Track

BEIDOU 3M14, 43623 is a payload satellite owned by CNSA (CN) in MEO that was launched on Wed, 19 Sep 2018 UTC via a CHANG ZHENG 3B/YZ-1 launch vehicle from the Xichang Space Center, China (XSC). Payloads include a variety of satellites, spacecraft, and rockets equipped with specific instruments for various scientific and technological missions. These include communications satellites like Starlink; space stations such as the ISS; scientific satellites like the Hubble; Earth observation satellites from companies like Planet Labs, Umbra, and HawkEye 360; GPS; miniature CubeSats for education and research; and military/defense satellites.

Loading next visibility...
BEIDOU 3M14 details
Identifier
43623, 2018-072B
Orbit
MEO
Last TLE update13 hours ago
Origin
Flag of CNCNSA (CN / PRC)
ManufacturerCAST
MissionOperational Defense Navigation
Bus & MotorBD-3M/SAR, Unknown motor
Mass1,014 kg wet, ~850 kg dry
Launch date (UTC)
2018-09-19 (6 years ago)
Launch vehicle
CHANG ZHENG 3B/YZ-1
Launch site
Xichang Space Center, China (XSC)
Object type
Payload
Rocket body
Debris
Shape & HBRBox + 2 Pan, 10 m
Radar Cross Section8.984 m², Large (>1 m²)

Expand to show TLE details & history

TLE from 13 hours ago
0 BEIDOU 3M14
1 43623U 18072B   24361.37290078 -.00000059  00000-0  00000-0 0  9993
2 43623  56.1540  80.4712 0003697 317.2536  42.7395  1.86231074 42632
Epoch: 2024-12-26T08:56Z
Definitive object data (Epoch: 2024-12-26T08:56:58.627Z)
Latitude-0.00005°
Longitude-149.11692°
Altitude21,520.776 km
Speed3.78 km/s
True Right ascension05h 21m 55s
True Declination0° 00' 00"
Sunlit
Object was in daylight at TLE epoch
Visualization TLE readout
Latitude-1.48305°
Longitude-150.12634°
Altitude21,520.769 km
Speed3.78 km/s
Apparent Right ascension05h 48m 52s
Apparent Declination-8° 51' 01"
Sunlit
Object is in daylight
Visualization observer readout
Local Sidereal Time21:09:24
Azimuth69.179° E
Elevation-35.768°
Doppler factor1
Orbital elements
Apogee altitude21,538.323 km
Perigee altitude21,517.69 km
Semi-major axis27,906.144 km
Eccentricity0.0003697
Inclination56.154°
RAAN80.4712°
Arg. of periapsis317.2536°
True anomaly42.76826°
Mean anomaly42.7395°
Eccentric anomaly42.75388°
Mean motion0.46558 °/min
BSTARUnknown
Orbital period773.23 mins
Loading maneuver chart data...
Loading historical data...
Loading historical data...
Loading historical data...
Loading historical data...
Loading historical data...
Loading historical data...
Loading historical data...
Other satellites on launch #72 in the year 2018 (2018-09-19 UTC)

BEIDOU 3M14 Visibility forecast

Observer location: undefined°, undefined

Span
Click to sort rows by Start time (UTC) header in descending order
Start Az.
Max El. time (UTC)
Max El. Az.
Max El.
End time (UTC)
End Az.
418 mins2024-12-27 11:19:22.008Z268.958° W2024-12-27 15:17:22.008Z64.33° ENE44.929°2024-12-27 18:17:22.008Z167.023° S
|